Location: Asheville, NC
(35.6000°N, 82.5500°W)
Time: 05:42:04
(UTC-04:00)

Vanguard 2 Rocket - Pass Details

Date: 15 December 2017
Orbit: 553 x 3328 km, 32.9° (Epoch: 20 April)

Event Time Altitude Azimuth Distance (km) Brightness Sun altitude
Rises 22:05:39 0° 272° (W) 5,617 11.4 -57.3°
Reaches altitude 10° 22:08:47 10° 271° (W) 4,913 10.9 -58.0°
Enters shadow 22:17:37 48° 264° (W) 3,408 9.7 -59.7°
Maximum altitude 22:24:29 80° 188° (S) 3,138 - -61.0°
Drops below altitude 10° 22:45:07 10° 105° (ESE) 6,198 - -65.0°
Sets 22:49:40 0° 105° (ESE) 7,079 - -65.8°
